Terug naar catalogus

SL-16 DEB

ActiefLEO
NORAD 29098·DEBRIS·🇷🇺 Russia

Gelanceerd Mar 26, 1993 vanaf Baikonur Cosmodrome

Loading…

Volgende Passages (komende 24 uur)

TLE

VersSource: Space-Track

Epoch: Sep 14, 2026, 14:08 UTC

1 29098U 93016AM  26257.58922516  .00000250  00000-0  14135-3 0  9991
2 29098  70.9256 336.7379 0079739  61.7894   4.1605 14.17872933683465

Volg SL-16 DEB in realtime met AllMySat

Download on the App Store